Regional Weather Roundup
Issued by NWS Spokane, WA

Home | Current Version | Previous Version | Text Only | Print | Product List | Glossary On
Versions: 1 2 3 4 5 6 7 8 9 10 11 12 13 14 15 16 17 18 19 20 21 22 23 24 25 26 27 28 29 30 31 32 33 34 35 36 37 38 39 40 41 42 43 44 45 46 47 48 49 50
913
NZUS01 KOTX 241405
RWROTX

Eastern Washington/Northern Idaho Roundup
National Weather Service, Spokane WA
700 AM PDT SAT JUN 24 2017

Note: "fair" indicated few or no clouds below 12,000 feet with no
significant weather and/or obstructions to visibility.

...Northeast Washington and Northern Idaho Panhandle...

CITY           SKY/WX    TMP DP  RH WIND       PRES   REMARKS
Spokane Intl   SUNNY     60  44  55 NE9       30.24R
Spokane Downto SUNNY     58  45  62 CALM      30.25R
Coeur d Alene  SUNNY     56  46  69 NE7       30.26R
Deer Park      SUNNY     59  41  51 MISG      30.25R
Sandpoint      SUNNY     54  43  66 CALM      30.27R
Bonners Ferry  FAIR      55  39  54 CALM      30.30R

...Southeast Washington and southern Idaho Panhandle...

CITY           SKY/WX    TMP DP  RH WIND       PRES   REMARKS
Walla Walla    SUNNY     68  45  43 CALM      30.17R
Pullman/Moscow SUNNY     59  38  45 E3        30.25R
Lewiston       SUNNY    N/A N/A N/A E3        30.23R
Lowell           N/A     49  44  83 CALM      30.30R
Grangeville    FAIR      54  37  54 CALM      30.26R

...Columbia Basin...

CITY           SKY/WX    TMP DP  RH WIND       PRES   REMARKS
Ephrata        SUNNY     67  39  35 NE6       30.19R
Moses Lake     SUNNY     62  42  47 NE7       30.21R
Pasco          SUNNY     58  50  75 CALM      30.17R
Richland       SUNNY     62  50  66 CALM      30.18R
Hermiston      SUNNY     60  45  57 S5        30.16R
Pendleton      SUNNY     60  45  57 E6        30.18R

...East Slopes Cascades...

CITY           SKY/WX    TMP DP  RH WIND       PRES   REMARKS
The Dalles     SUNNY     59  44  57 CALM      30.16R
Yakima         SUNNY     61  48  62 W9        30.20R
Ellensburg     SUNNY     60  44  55 CALM      30.23R
Stampede Pass  SUNNY     59  46  62 NE5       30.29R
Wenatchee      SUNNY     63  45  51 W9        30.22R
Omak           SUNNY     62  38  40 N9        30.24R
Sunnyside      SUNNY     55  47  75 CALM      30.18R

...Southern British Columbia...

CITY           SKY/WX    TMP DP  RH WIND       PRES   REMARKS

...Western Montana...

CITY           SKY/WX    TMP DP  RH WIND       PRES   REMARKS
Kalispell        N/A     58  46  64 N8        30.28S
Missoula       SUNNY     56  41  57 VRB3      30.31R

...Neighboring Cities...

CITY           SKY/WX    TMP DP  RH WIND       PRES   REMARKS
Seattle        SUNNY     64  53  67 NE3       30.15S
Portland       SUNNY     64  52  64 NW3       30.06S
Boise          SUNNY     61  41  47 S5        30.18R
Great Falls    SUNNY     53  40  61 SW7       30.35R



USA.gov is the U.S. government's official web portal to all federal, state and local government web resources and services.